Year,Month,Day,Hour,Minute,Value (Times are PST for windgust in km/hr)
2017,06,17,00,09,3.20
2017,06,17,00,44,4.80
2017,06,17,00,45,4.80
2017,06,17,00,46,4.80
2017,06,17,01,02,1.60
2017,06,17,01,03,4.80
2017,06,17,01,04,4.80
2017,06,17,01,14,1.60
2017,06,17,01,17,4.80
2017,06,17,01,18,3.20
2017,06,17,01,19,3.20
2017,06,17,01,22,1.60
2017,06,17,01,23,6.40
2017,06,17,01,24,4.80
2017,06,17,01,32,4.80
2017,06,17,01,33,4.80
2017,06,17,01,34,6.40
2017,06,17,01,35,8.10
2017,06,17,01,36,8.10
2017,06,17,01,37,6.40
2017,06,17,01,38,4.80
2017,06,17,01,39,6.40
2017,06,17,01,40,8.10
2017,06,17,01,47,6.40
2017,06,17,01,48,8.10
2017,06,17,01,49,11.30
2017,06,17,01,50,11.30
2017,06,17,01,51,8.10
2017,06,17,01,52,8.10
2017,06,17,01,53,11.30
2017,06,17,01,54,11.30
2017,06,17,01,55,11.30
2017,06,17,01,56,8.10
2017,06,17,01,57,9.60
2017,06,17,01,58,11.30
2017,06,17,01,59,8.10
2017,06,17,02,00,9.60
2017,06,17,02,01,8.10
2017,06,17,02,02,8.10
2017,06,17,02,03,8.10
2017,06,17,02,04,11.30
2017,06,17,02,05,6.40
2017,06,17,02,06,16.10
2017,06,17,02,07,11.30
2017,06,17,02,08,9.60
2017,06,17,02,09,11.30
2017,06,17,02,10,11.30
2017,06,17,02,11,9.60
2017,06,17,02,12,14.50
2017,06,17,02,13,11.30
2017,06,17,02,14,11.30
2017,06,17,02,15,14.50
2017,06,17,02,16,11.30
2017,06,17,02,17,11.30
2017,06,17,02,18,9.60
2017,06,17,02,19,11.30
2017,06,17,02,20,9.60
2017,06,17,02,21,11.30
2017,06,17,02,22,8.10
2017,06,17,02,23,8.10
2017,06,17,02,24,11.30
2017,06,17,02,25,9.60
2017,06,17,02,26,6.40
2017,06,17,02,27,11.30
2017,06,17,02,28,8.10
2017,06,17,02,29,4.80
2017,06,17,02,31,8.10
2017,06,17,02,32,4.80
2017,06,17,02,33,8.10
2017,06,17,02,34,8.10
2017,06,17,02,35,8.10
2017,06,17,02,36,8.10
2017,06,17,02,37,8.10
2017,06,17,02,38,8.10
2017,06,17,02,39,6.40
2017,06,17,02,40,6.40
2017,06,17,02,41,4.80
2017,06,17,02,42,9.60
2017,06,17,02,43,6.40
2017,06,17,02,44,6.40
2017,06,17,02,45,8.10
2017,06,17,02,46,4.80
2017,06,17,02,47,3.20
2017,06,17,02,48,3.20
2017,06,17,02,51,4.80
2017,06,17,02,52,3.20
2017,06,17,02,55,6.40
2017,06,17,02,56,6.40
2017,06,17,02,57,3.20
2017,06,17,03,01,8.10
2017,06,17,03,02,8.10
2017,06,17,03,03,6.40
2017,06,17,03,04,1.60
2017,06,17,03,09,8.10
2017,06,17,03,10,6.40
2017,06,17,03,11,4.80
2017,06,17,03,12,6.40
2017,06,17,03,13,8.10
2017,06,17,03,14,1.60
2017,06,17,06,46,1.60
2017,06,17,08,18,1.60
2017,06,17,08,28,3.20
2017,06,17,08,29,3.20
2017,06,17,08,30,3.20
2017,06,17,08,31,3.20
2017,06,17,08,32,1.60
2017,06,17,08,33,3.20
2017,06,17,08,34,3.20
2017,06,17,08,38,4.80
2017,06,17,08,39,6.40
2017,06,17,08,40,4.80
2017,06,17,08,41,3.20
2017,06,17,08,42,4.80
2017,06,17,08,43,4.80
2017,06,17,08,44,4.80
2017,06,17,08,45,6.40
2017,06,17,08,47,3.20
2017,06,17,08,50,1.60
2017,06,17,08,51,6.40
2017,06,17,08,52,6.40
2017,06,17,08,53,4.80
2017,06,17,08,54,3.20
2017,06,17,08,55,3.20
2017,06,17,09,00,4.80
2017,06,17,09,01,4.80
2017,06,17,09,03,4.80
2017,06,17,09,04,1.60
2017,06,17,09,05,6.40
2017,06,17,09,08,6.40
2017,06,17,09,09,8.10
2017,06,17,09,11,1.60
2017,06,17,09,12,6.40
2017,06,17,09,13,6.40
2017,06,17,09,14,4.80
2017,06,17,09,15,1.60
2017,06,17,09,16,11.30
2017,06,17,09,17,6.40
2017,06,17,09,18,6.40
2017,06,17,09,19,8.10
2017,06,17,09,20,3.20
2017,06,17,09,24,8.10
2017,06,17,09,25,6.40
2017,06,17,09,26,3.20
2017,06,17,09,27,9.60
2017,06,17,09,28,4.80
2017,06,17,09,29,1.60
2017,06,17,09,32,8.10
2017,06,17,09,33,6.40
2017,06,17,09,34,8.10
2017,06,17,09,35,9.60
2017,06,17,09,36,3.20
2017,06,17,09,38,6.40
2017,06,17,09,39,3.20
2017,06,17,09,40,4.80
2017,06,17,09,47,8.10
2017,06,17,09,48,4.80
2017,06,17,09,49,6.40
2017,06,17,09,51,9.60
2017,06,17,09,52,8.10
2017,06,17,09,53,11.30
2017,06,17,09,54,6.40
2017,06,17,09,57,3.20
2017,06,17,09,59,1.60
2017,06,17,10,00,8.10
2017,06,17,10,01,8.10
2017,06,17,10,02,8.10
2017,06,17,10,03,6.40
2017,06,17,10,04,9.60
2017,06,17,10,05,17.70
2017,06,17,10,06,14.50
2017,06,17,10,07,16.10
2017,06,17,10,08,8.10
2017,06,17,10,09,9.60
2017,06,17,10,10,8.10
2017,06,17,10,11,8.10
2017,06,17,10,12,11.30
2017,06,17,10,13,16.10
2017,06,17,10,14,9.60
2017,06,17,10,15,17.70
2017,06,17,10,16,17.70
2017,06,17,10,17,19.30
2017,06,17,10,18,9.60
2017,06,17,10,19,8.10
2017,06,17,10,20,12.90
2017,06,17,10,21,19.30
2017,06,17,10,22,9.60
2017,06,17,10,23,17.70
2017,06,17,10,24,11.30
2017,06,17,10,25,8.10
2017,06,17,10,26,8.10
2017,06,17,10,28,8.10
2017,06,17,10,29,9.60
2017,06,17,10,30,8.10
2017,06,17,10,31,8.10
2017,06,17,10,32,8.10
2017,06,17,10,33,8.10
2017,06,17,10,34,9.60
2017,06,17,10,35,9.60
2017,06,17,10,36,11.30
2017,06,17,10,37,8.10
2017,06,17,10,38,11.30
2017,06,17,10,39,17.70
2017,06,17,10,40,14.50
2017,06,17,10,41,16.10
2017,06,17,10,42,14.50
2017,06,17,10,43,11.30
2017,06,17,10,44,19.30
2017,06,17,10,45,8.10
2017,06,17,10,46,8.10
2017,06,17,10,47,11.30
2017,06,17,10,48,16.10
2017,06,17,10,49,14.50
2017,06,17,10,50,11.30
2017,06,17,10,51,20.90
2017,06,17,10,52,14.50
2017,06,17,10,53,14.50
2017,06,17,10,54,11.30
2017,06,17,10,55,14.50
2017,06,17,10,56,9.60
2017,06,17,10,57,11.30
2017,06,17,10,58,9.60
2017,06,17,10,59,8.10
2017,06,17,11,00,9.60
2017,06,17,11,01,9.60
2017,06,17,11,02,14.50
2017,06,17,11,03,6.40
2017,06,17,11,04,14.50
2017,06,17,11,05,9.60
2017,06,17,11,06,14.50
2017,06,17,11,07,16.10
2017,06,17,11,08,9.60
2017,06,17,11,09,8.10
2017,06,17,11,10,17.70
2017,06,17,11,11,14.50
2017,06,17,11,12,9.60
2017,06,17,11,13,16.10
2017,06,17,11,14,16.10
2017,06,17,11,15,20.90
2017,06,17,11,16,16.10
2017,06,17,11,17,16.10
2017,06,17,11,18,16.10
2017,06,17,11,19,6.40
2017,06,17,11,21,6.40
2017,06,17,11,22,8.10
2017,06,17,11,23,9.60
2017,06,17,11,24,6.40
2017,06,17,11,25,8.10
2017,06,17,11,26,20.90
2017,06,17,11,27,16.10
2017,06,17,11,28,20.90
2017,06,17,11,29,19.30
2017,06,17,11,30,20.90
2017,06,17,11,31,20.90
2017,06,17,11,32,14.50
2017,06,17,11,33,12.90
2017,06,17,11,34,16.10
2017,06,17,11,35,9.60
2017,06,17,11,36,16.10
2017,06,17,11,37,11.30
2017,06,17,11,38,11.30
2017,06,17,11,39,16.10
2017,06,17,11,40,17.70
2017,06,17,11,41,14.50
2017,06,17,11,42,8.10
2017,06,17,11,43,9.60
2017,06,17,11,44,16.10
2017,06,17,11,45,8.10
2017,06,17,11,46,9.60
2017,06,17,11,47,14.50
2017,06,17,11,48,9.60
2017,06,17,11,49,11.30
2017,06,17,11,50,16.10
2017,06,17,11,51,17.70
2017,06,17,11,52,11.30
2017,06,17,11,53,11.30
2017,06,17,11,54,20.90
2017,06,17,11,55,20.90
2017,06,17,11,56,11.30
2017,06,17,11,57,20.90
2017,06,17,11,58,19.30
2017,06,17,11,59,8.10
2017,06,17,12,00,14.50
2017,06,17,12,01,16.10
2017,06,17,12,02,14.50
2017,06,17,12,03,16.10
2017,06,17,12,04,11.30
2017,06,17,12,05,11.30
2017,06,17,12,06,17.70
2017,06,17,12,07,11.30
2017,06,17,12,08,16.10
2017,06,17,12,09,9.60
2017,06,17,12,10,9.60
2017,06,17,12,11,8.10
2017,06,17,12,12,17.70
2017,06,17,12,13,11.30
2017,06,17,12,14,16.10
2017,06,17,12,15,12.90
2017,06,17,12,16,17.70
2017,06,17,12,17,9.60
2017,06,17,12,18,16.10
2017,06,17,12,19,17.70
2017,06,17,12,20,19.30
2017,06,17,12,21,16.10
2017,06,17,12,22,19.30
2017,06,17,12,23,8.10
2017,06,17,12,24,8.10
2017,06,17,12,25,17.70
2017,06,17,12,26,12.90
2017,06,17,12,27,9.60
2017,06,17,12,28,9.60
2017,06,17,12,29,4.80
2017,06,17,12,30,9.60
2017,06,17,12,31,11.30
2017,06,17,12,32,17.70
2017,06,17,12,33,16.10
2017,06,17,12,34,11.30
2017,06,17,12,35,19.30
2017,06,17,12,36,17.70
2017,06,17,12,37,16.10
2017,06,17,12,38,17.70
2017,06,17,12,39,9.60
2017,06,17,12,40,14.50
2017,06,17,12,41,19.30
2017,06,17,12,42,20.90
2017,06,17,12,43,22.50
2017,06,17,12,44,27.40
2017,06,17,12,45,19.30
2017,06,17,12,46,19.30
2017,06,17,12,47,22.50
2017,06,17,12,48,22.50
2017,06,17,12,49,22.50
2017,06,17,12,50,24.20
2017,06,17,12,51,19.30
2017,06,17,12,52,14.50
2017,06,17,12,53,14.50
2017,06,17,12,54,11.30
2017,06,17,12,55,11.30
2017,06,17,12,56,6.40
2017,06,17,12,57,24.20
2017,06,17,12,58,19.30
2017,06,17,12,59,19.30
2017,06,17,13,00,19.30
2017,06,17,13,01,20.90
2017,06,17,13,02,14.50
2017,06,17,13,03,19.30
2017,06,17,13,04,20.90
2017,06,17,13,05,8.10
2017,06,17,13,06,20.90
2017,06,17,13,07,19.30
2017,06,17,13,08,20.90
2017,06,17,13,09,22.50
2017,06,17,13,10,19.30
2017,06,17,13,11,17.70
2017,06,17,13,12,22.50
2017,06,17,13,13,20.90
2017,06,17,13,14,9.60
2017,06,17,13,15,11.30
2017,06,17,13,16,11.30
2017,06,17,13,17,14.50
2017,06,17,13,18,11.30
2017,06,17,13,19,14.50
2017,06,17,13,20,19.30
2017,06,17,13,21,17.70
2017,06,17,13,22,14.50
2017,06,17,13,23,6.40
2017,06,17,13,24,9.60
2017,06,17,13,25,4.80
2017,06,17,13,26,4.80
2017,06,17,13,27,11.30
2017,06,17,13,28,14.50
2017,06,17,13,29,20.90
2017,06,17,13,30,17.70
2017,06,17,13,31,8.10
2017,06,17,13,32,4.80
2017,06,17,13,33,14.50
2017,06,17,13,34,9.60
2017,06,17,13,35,3.20
2017,06,17,13,36,9.60
2017,06,17,13,37,17.70
2017,06,17,13,38,11.30
2017,06,17,13,39,17.70
2017,06,17,13,40,17.70
2017,06,17,13,41,19.30
2017,06,17,13,42,9.60
2017,06,17,13,43,17.70
2017,06,17,13,44,12.90
2017,06,17,13,45,16.10
2017,06,17,13,46,16.10
2017,06,17,13,47,17.70
2017,06,17,13,48,14.50
2017,06,17,13,49,14.50
2017,06,17,13,50,11.30
2017,06,17,13,51,16.10
2017,06,17,13,52,11.30
2017,06,17,13,53,14.50
2017,06,17,13,54,17.70
2017,06,17,13,55,6.40
2017,06,17,13,56,14.50
2017,06,17,13,57,14.50
2017,06,17,13,58,9.60
2017,06,17,13,59,14.50
2017,06,17,14,00,8.10
2017,06,17,14,01,14.50
2017,06,17,14,02,11.30
2017,06,17,14,03,11.30
2017,06,17,14,04,17.70
2017,06,17,14,05,17.70
2017,06,17,14,06,16.10
2017,06,17,14,09,3.20
2017,06,17,14,10,8.10
2017,06,17,14,11,19.30
2017,06,17,14,12,16.10
2017,06,17,14,13,17.70
2017,06,17,14,14,20.90
2017,06,17,14,15,9.60
2017,06,17,14,16,19.30
2017,06,17,14,17,8.10
2017,06,17,14,20,11.30
2017,06,17,14,21,11.30
2017,06,17,14,22,9.60
2017,06,17,14,23,8.10
2017,06,17,14,24,4.80
2017,06,17,14,25,11.30
2017,06,17,14,26,4.80
2017,06,17,14,27,14.50
2017,06,17,14,28,9.60
2017,06,17,14,29,12.90
2017,06,17,14,30,14.50
2017,06,17,14,31,11.30
2017,06,17,14,32,8.10
2017,06,17,14,33,14.50
2017,06,17,14,34,11.30
2017,06,17,14,35,14.50
2017,06,17,14,36,8.10
2017,06,17,14,37,14.50
2017,06,17,14,38,11.30
2017,06,17,14,39,9.60
2017,06,17,14,40,14.50
2017,06,17,14,41,11.30
2017,06,17,14,42,16.10
2017,06,17,14,43,14.50
2017,06,17,14,44,19.30
2017,06,17,14,45,16.10
2017,06,17,14,46,16.10
2017,06,17,14,47,9.60
2017,06,17,14,48,11.30
2017,06,17,14,50,11.30
2017,06,17,14,51,9.60
2017,06,17,14,52,17.70
2017,06,17,14,53,17.70
2017,06,17,14,54,14.50
2017,06,17,14,55,16.10
2017,06,17,14,56,11.30
2017,06,17,14,57,9.60
2017,06,17,14,58,8.10
2017,06,17,15,00,11.30
2017,06,17,15,01,9.60
2017,06,17,15,02,8.10
2017,06,17,15,04,8.10
2017,06,17,15,05,14.50
2017,06,17,15,06,8.10
2017,06,17,15,07,16.10
2017,06,17,15,08,3.20
2017,06,17,15,09,11.30
2017,06,17,15,10,12.90
2017,06,17,15,11,9.60
2017,06,17,15,15,11.30
2017,06,17,15,16,12.90
2017,06,17,15,17,9.60
2017,06,17,15,18,17.70
2017,06,17,15,19,9.60
2017,06,17,15,20,11.30
2017,06,17,15,25,8.10
2017,06,17,15,26,9.60
2017,06,17,15,27,8.10
2017,06,17,15,28,8.10
2017,06,17,15,29,8.10
2017,06,17,15,33,9.60
2017,06,17,15,34,1.60
2017,06,17,15,35,8.10
2017,06,17,15,36,12.90
2017,06,17,15,37,11.30
2017,06,17,15,38,6.40
2017,06,17,15,39,9.60
2017,06,17,15,40,11.30
2017,06,17,15,42,9.60
2017,06,17,15,43,9.60
2017,06,17,15,44,8.10
2017,06,17,15,45,8.10
2017,06,17,15,46,12.90
2017,06,17,15,47,12.90
2017,06,17,15,48,6.40
2017,06,17,15,49,3.20
2017,06,17,15,50,8.10
2017,06,17,15,51,8.10
2017,06,17,15,52,6.40
2017,06,17,15,53,4.80
2017,06,17,15,55,1.60
2017,06,17,15,56,3.20
2017,06,17,15,58,6.40
2017,06,17,15,59,8.10
2017,06,17,16,01,6.40
2017,06,17,16,03,6.40
2017,06,17,16,04,8.10
2017,06,17,16,05,8.10
2017,06,17,16,06,8.10
2017,06,17,16,07,6.40
2017,06,17,16,08,11.30
2017,06,17,16,09,6.40
2017,06,17,16,10,1.60
2017,06,17,16,11,8.10
2017,06,17,16,12,8.10
2017,06,17,16,13,9.60
2017,06,17,16,14,9.60
2017,06,17,16,15,6.40
2017,06,17,16,16,11.30
2017,06,17,16,17,9.60
2017,06,17,16,18,8.10
2017,06,17,16,19,8.10
2017,06,17,16,20,8.10
2017,06,17,16,21,11.30
2017,06,17,16,22,8.10
2017,06,17,16,23,11.30
2017,06,17,16,24,3.20
2017,06,17,16,25,9.60
2017,06,17,16,26,8.10
2017,06,17,16,27,6.40
2017,06,17,16,28,4.80
2017,06,17,16,29,3.20
2017,06,17,16,30,9.60
2017,06,17,16,31,12.90
2017,06,17,16,32,9.60
2017,06,17,16,34,16.10
2017,06,17,16,35,12.90
2017,06,17,16,36,11.30
2017,06,17,16,37,8.10
2017,06,17,16,38,9.60
2017,06,17,16,39,8.10
2017,06,17,16,40,9.60
2017,06,17,16,41,9.60
2017,06,17,16,42,8.10
2017,06,17,16,43,1.60
2017,06,17,16,45,8.10
2017,06,17,16,46,9.60
2017,06,17,16,47,11.30
2017,06,17,16,48,9.60
2017,06,17,16,49,9.60
2017,06,17,16,51,6.40
2017,06,17,16,52,9.60
2017,06,17,16,53,9.60
2017,06,17,16,54,9.60
2017,06,17,16,55,6.40
2017,06,17,16,56,9.60
2017,06,17,16,58,9.60
2017,06,17,16,59,9.60
2017,06,17,17,00,6.40
2017,06,17,17,01,6.40
2017,06,17,17,02,8.10
2017,06,17,17,03,14.50
2017,06,17,17,04,14.50
2017,06,17,17,05,9.60
2017,06,17,17,06,6.40
2017,06,17,17,07,8.10
2017,06,17,17,08,8.10
2017,06,17,17,09,6.40
2017,06,17,17,10,11.30
2017,06,17,17,11,6.40
2017,06,17,17,12,6.40
2017,06,17,17,13,6.40
2017,06,17,17,14,8.10
2017,06,17,17,15,9.60
2017,06,17,17,16,6.40
2017,06,17,17,17,1.60
2017,06,17,17,18,6.40
2017,06,17,17,19,4.80
2017,06,17,17,20,8.10
2017,06,17,17,21,6.40
2017,06,17,17,26,3.20
2017,06,17,17,27,6.40
2017,06,17,17,28,8.10
2017,06,17,17,29,6.40
2017,06,17,17,32,6.40
2017,06,17,17,33,6.40
2017,06,17,17,34,6.40
2017,06,17,18,49,4.80
2017,06,17,18,53,1.60
2017,06,17,18,58,4.80
2017,06,17,18,59,6.40
2017,06,17,19,00,3.20
2017,06,17,19,02,1.60
2017,06,17,19,03,6.40
2017,06,17,19,04,1.60
2017,06,17,19,05,1.60
2017,06,17,19,13,1.60
2017,06,17,19,18,8.10
2017,06,17,19,19,9.60
2017,06,17,19,20,8.10
2017,06,17,19,21,4.80
2017,06,17,19,22,1.60
2017,06,17,19,24,6.40
2017,06,17,19,25,3.20
2017,06,17,19,26,8.10
2017,06,17,19,28,1.60
2017,06,17,19,30,9.60
2017,06,17,19,31,9.60
2017,06,17,19,32,8.10
2017,06,17,19,33,16.10
2017,06,17,19,34,8.10
2017,06,17,19,35,11.30
2017,06,17,19,36,6.40
2017,06,17,19,37,6.40
2017,06,17,19,38,6.40
2017,06,17,19,39,8.10
2017,06,17,19,40,8.10
2017,06,17,19,41,4.80
2017,06,17,19,42,14.50
2017,06,17,19,43,11.30
2017,06,17,19,44,4.80
2017,06,17,19,45,1.60
2017,06,17,19,47,6.40
2017,06,17,19,48,1.60
2017,06,17,19,51,6.40
2017,06,17,19,52,8.10
2017,06,17,19,53,6.40
2017,06,17,19,54,3.20
2017,06,17,19,55,4.80
2017,06,17,19,58,4.80
2017,06,17,19,59,6.40
2017,06,17,20,00,11.30
2017,06,17,20,01,11.30
2017,06,17,20,02,9.60
2017,06,17,20,03,8.10
2017,06,17,20,04,6.40
2017,06,17,20,05,1.60
2017,06,17,20,09,8.10
2017,06,17,20,10,4.80
2017,06,17,20,11,4.80
2017,06,17,20,12,6.40
2017,06,17,20,13,3.20
2017,06,17,20,14,8.10
2017,06,17,20,15,4.80
2017,06,17,20,20,4.80
2017,06,17,20,39,1.60
2017,06,17,20,43,6.40
2017,06,17,20,44,8.10
2017,06,17,20,45,3.20
2017,06,17,20,46,4.80
2017,06,17,20,47,4.80
2017,06,17,20,48,3.20
2017,06,17,23,20,8.10
2017,06,17,23,21,4.80
2017,06,17,23,44,4.80
2017,06,17,23,45,1.60
2017,06,17,23,50,1.60
2017,06,17,23,58,1.60
